FW3157 Weather Reports


time (UTC)temp
C
wind
direction
speed
KPH
gust
KPH
rain 1hr
cm
rain 24hr
cm
rain mn
cm
humidity
%
barometer
mb
20260901161357 30 154 4.8 12.9 0.00 0.00 0.00 61 1013.7
20260901161107 30 209 4.8 14.5 0.00 0.00 0.00 60 1013.7
20260901160349 31 194 4.8 14.5 0.00 0.00 0.00 61 1013.5
20260901155834 31 184 4.8 14.5 0.00 0.00 0.00 60 1013.4
20260901155545 31 210 6.4 14.5 0.00 0.00 0.00 59 1013.4
20260901154822 31 160 8.0 14.5 0.00 0.00 0.00 58 1013.4
20260901154316 31 184 8.0 14.5 0.00 0.00 0.00 58 1013.4
20260901153810 31 197 8.0 16.1 0.00 0.00 0.00 57 1013.4
20260901153304 31 212 9.7 17.7 0.00 0.00 0.00 56 1013.4
20260901153022 31 165 8.0 17.7 0.00 0.00 0.00 54 1013.5
20260901152253 31 207 9.7 16.1 0.00 0.00 0.00 54 1013.5
20260901152006 31 176 8.0 16.1 0.00 0.00 0.00 53 1013.6
20260901151241 31 230 8.0 14.5 0.00 0.00 0.00 53 1013.5
20260901150735 31 94 8.0 16.1 0.00 0.00 0.00 53 1013.5
20260901150228 31 168 6.4 16.1 0.00 0.00 0.00 53 1013.5
20260901150205 32 228 6.4 12.9 0.00 0.00 0.00 52 1013.5
20260901145217 32 205 6.4 14.5 0.00 0.00 0.00 52 1013.5
20260901144711 32 211 6.4 14.5 0.00 0.00 0.00 52 1013.5
20260901144421 32 213 6.4 16.1 0.00 0.00 0.00 52 1013.4
20260901143659 32 212 8.0 17.7 0.00 0.00 0.00 51 1013.5
20260901143152 32 259 4.8 17.7 0.00 0.00 0.00 50 1013.5
20260901142646 32 172 4.8 11.3 0.00 0.00 0.00 49 1013.5
20260901142141 32 194 4.8 16.1 0.00 0.00 0.00 51 1013.5
20260901142127 32 169 6.4 16.1 0.00 0.00 0.00 50 1013.5
20260901141129 32 162 8.0 16.1 0.00 0.00 0.00 51 1013.5
20260901140627 32 250 9.7 19.3 0.00 0.00 0.00 51 1013.6
20260901140127 32 105 9.7 19.3 0.00 0.00 0.00 50 1013.6
20260901135627 32 182 9.7 17.7 0.00 0.00 0.00 51 1013.5
20260901135133 32 248 8.0 17.7 0.00 0.00 0.00 49 1013.6
20260901134627 32 213 6.4 16.1 0.00 0.00 0.00 48 1013.6
20260901134127 32 240 6.4 14.5 0.00 0.00 0.00 48 1013.6
20260901133627 32 79 6.4 14.5 0.00 0.00 0.00 48 1013.7
20260901133127 32 172 6.4 14.5 0.00 0.00 0.00 49 1013.8
20260901133109 32 250 6.4 20.9 0.00 0.00 0.00 50 1013.8
20260901132127 32 214 4.8 20.9 0.00 0.00 0.00 53 1013.8
20260901131627 32 183 4.8 12.9 0.00 0.00 0.00 53 1013.9
20260901131351 32 203 6.4 16.1 0.00 0.00 0.00 51 1013.9
20260901130625 32 275 6.4 16.1 0.00 0.00 0.00 51 1013.9
20260901130125 32 233 4.8 14.5 0.00 0.00 0.00 50 1014.0
20260901125627 32 202 4.8 12.9 0.00 0.00 0.00 50 1014.1
20260901125127 32 172 3.2 11.3 0.00 0.00 0.00 51 1014.1
20260901124626 32 217 3.2 11.3 0.00 0.00 0.00 52 1014.1
20260901124125 32 224 4.8 12.9 0.00 0.00 0.00 53 1014.1
20260901123625 31 245 6.4 14.5 0.00 0.00 0.00 54 1014.1
20260901123125 31 207 6.4 17.7 0.00 0.00 0.00 53 1014.1
20260901122622 31 193 4.8 17.7 0.00 0.00 0.00 53 1014.2
20260901122120 31 131 6.4 16.1 0.00 0.00 0.00 52 1014.3
20260901121621 31 272 6.4 14.5 0.00 0.00 0.00 52 1014.4
20260901121121 31 241 6.4 16.1 0.00 0.00 0.00 53 1014.5
20260901120620 31 209 6.4 16.1 0.00 0.00 0.00 51 1014.6
20260901120120 31 193 8.0 16.1 0.00 0.00 0.00 52 1014.6
20260901115620 31 100 8.0 17.7 0.00 0.00 0.00 51 1014.7
20260901115123 31 276 8.0 19.3 0.00 0.00 0.00 53 1014.7
20260901114620 31 259 8.0 19.3 0.00 0.00 0.00 53 1014.7
20260901114120 31 267 8.0 16.1 0.00 0.00 0.00 54 1014.7
20260901113621 31 226 6.4 16.1 0.00 0.00 0.00 56 1014.7
20260901113121 30 270 6.4 14.5 0.00 0.00 0.00 58 1014.7
20260901112845 30 231 6.4 16.1 0.00 0.00 0.00 56 1014.8
20260901112115 30 299 4.8 16.1 0.00 0.00 0.00 59 1014.7
20260901111612 30 268 4.8 12.9 0.00 0.00 0.00 58 1014.8
20260901111113 30 280 8.0 17.7 0.00 0.00 0.00 61 1014.8
20260901110613 30 236 9.7 17.7 0.00 0.00 0.00 61 1014.8
20260901110113 30 267 8.0 17.7 0.00 0.00 0.00 60 1014.9
20260901105613 30 266 6.4 17.7 0.00 0.00 0.00 59 1014.9
20260901105113 30 217 6.4 17.7 0.00 0.00 0.00 59 1014.9
20260901104612 30 236 6.4 17.7 0.00 0.00 0.00 60 1014.9
20260901104112 30 231 8.0 17.7 0.00 0.00 0.00 62 1015.0
20260901103613 30 254 6.4 17.7 0.00 0.00 0.00 60 1015.1
20260901103113 30 284 4.8 14.5 0.00 0.00 0.00 58 1015.0
20260901102612 30 265 4.8 12.9 0.00 0.00 0.00 55 1015.1
20260901102110 30 204 4.8 12.9 0.00 0.00 0.00 57 1015.2
20260901101611 30 276 6.4 14.5 0.00 0.00 0.00 57 1015.2
20260901101110 30 274 6.4 16.1 0.00 0.00 0.00 55 1015.3
20260901100611 30 212 6.4 16.1 0.00 0.00 0.00 55 1015.4
20260901100107 29 245 8.0 14.5 0.00 0.00 0.00 54 1015.4
20260901095606 29 234 8.0 14.5 0.00 0.00 0.00 57 1015.4
20260901095107 29 324 8.0 14.5 0.00 0.00 0.00 56 1015.3
20260901094607 29 243 8.0 14.5 0.00 0.00 0.00 56 1015.3
20260901094107 29 207 8.0 14.5 0.00 0.00 0.00 59 1015.3
20260901093814 29 295 4.8 11.3 0.00 0.00 0.00 59 1015.2
20260901093656 29 262 6.4 12.9 0.00 0.00 0.00 60 1015.2
20260901092607 29 222 4.8 9.7 0.00 0.00 0.00 57 1015.3
20260901092107 29 255 3.2 8.0 0.00 0.00 0.00 59 1015.4
20260901091602 29 295 3.2 9.7 0.00 0.00 0.00 57 1015.5
20260901091102 28 231 4.8 11.3 0.00 0.00 0.00 56 1015.5
20260901090602 28 295 6.4 11.3 0.00 0.00 0.00 57 1015.5
20260901085602 28 350 4.8 9.7 0.00 0.00 0.00 58 1015.5
20260901085104 28 281 4.8 11.3 0.00 0.00 0.00 58 1015.5
20260901084103 28 280 4.8 9.7 0.00 0.00 0.00 60 1015.4
20260901083604 28 288 4.8 8.0 0.00 0.00 0.00 60 1015.4
20260901083059 28 270 3.2 9.7 0.00 0.00 0.00 58 1015.4
20260901082600 28 262 3.2 9.7 0.00 0.00 0.00 60 1015.4
20260901082057 28 296 3.2 6.4 0.00 0.00 0.00 63 1015.4
20260901081557 28 258 3.2 8.0 0.00 0.00 0.00 65 1015.4
20260901081056 28 276 4.8 8.0 0.00 0.00 0.00 65 1015.4
20260901080557 27 293 4.8 8.0 0.00 0.00 0.00 66 1015.5
20260901080057 27 293 4.8 8.0 0.00 0.00 0.00 68 1015.5
20260901075554 27 256 4.8 9.7 0.00 0.00 0.00 67 1015.5
20260901075055 27 238 4.8 11.3 0.00 0.00 0.00 67 1015.5
20260901074818 27 254 4.8 11.3 0.00 0.00 0.00 68 1015.5
20260901074054 27 269 4.8 9.7 0.00 0.00 0.00 69 1015.5
20260901073555 27 264 6.4 11.3 0.00 0.00 0.00 70 1015.5
20260901073054 27 261 6.4 12.9 0.00 0.00 0.00 71 1015.5
20260901072552 27 283 8.0 14.5 0.00 0.00 0.00 71 1015.5
20260901072052 27 260 6.4 14.5 0.00 0.00 0.00 71 1015.4
20260901071552 27 250 4.8 11.3 0.00 0.00 0.00 68 1015.4
20260901071045 27 250 4.8 11.3 0.00 0.00 0.00 67 1015.4
20260901070540 27 248 6.4 11.3 0.00 0.00 0.00 68 1015.3
20260901070033 27 260 6.4 11.3 0.00 0.00 0.00 68 1015.3
20260901065528 27 265 3.2 8.0 0.00 0.00 0.00 66 1015.2
20260901065022 28 268 1.6 6.4 0.00 0.00 0.00 62 1015.2
20260901064516 28 236 0.0 3.2 0.00 0.00 0.00 58 1015.2
20260901064010 28 163 0.0 1.6 0.00 0.00 0.00 60 1015.2
20260901063504 28 146 0.0 4.8 0.00 0.00 0.00 62 1015.1
20260901062957 28 79 1.6 4.8 0.00 0.00 0.00 62 1015.0
20260901062452 27 114 1.6 3.2 0.00 0.00 0.00 64 1015.1
20260901061946 27 112 1.6 4.8 0.00 0.00 0.00 66 1015.1
20260901061439 27 51 1.6 4.8 0.00 0.00 0.00 67 1015.1
20260901060934 27 30 1.6 4.8 0.00 0.00 0.00 68 1015.1
20260901060427 26 30 1.6 6.4 0.00 0.00 0.00 70 1015.2
20260901055922 26 19 1.6 6.4 0.00 0.00 0.00 72 1015.3
20260901055416 26 300 3.2 6.4 0.00 0.00 0.00 72 1015.3
20260901054910 25 296 4.8 6.4 0.00 0.00 0.00 73 1015.3
20260901054404 25 304 3.2 9.7 0.00 0.00 0.00 73 1015.3
20260901053857 25 6 3.2 9.7 0.00 0.00 0.00 74 1015.3
20260901053352 25 289 4.8 8.0 0.00 0.00 0.00 76 1015.3
20260901053103 25 297 4.8 9.7 0.00 0.00 0.00 76 1015.3
20260901052340 25 315 6.4 9.7 0.00 0.00 0.00 77 1015.3
20260901051834 25 301 6.4 9.7 0.00 0.00 0.00 78 1015.3
20260901051547 25 315 6.4 9.7 0.00 0.00 0.00 78 1015.3
20260901050823 25 293 6.4 9.7 0.00 0.00 0.00 78 1015.2
20260901050316 25 314 6.4 11.3 0.00 0.00 0.00 78 1015.3
20260901045810 25 281 4.8 11.3 0.00 0.00 0.00 78 1015.3
20260901045306 24 274 6.4 12.9 0.00 0.00 0.00 77 1015.2
20260901045006 25 294 4.8 14.5 0.00 0.00 0.00 77 1015.1
20260901044841 25 279 6.4 14.5 0.00 0.00 0.00 78 1015.1
20260901044007 25 255 6.4 9.7 0.00 0.00 0.00 78 1015.0
20260901043240 25 257 6.4 11.3 0.00 0.00 0.00 79 1014.9
20260901042734 25 277 4.8 11.3 0.00 0.00 0.00 78 1014.9
20260901042227 25 272 3.2 8.0 0.00 0.00 0.00 76 1014.8
20260901041945 25 253 1.6 3.2 0.00 0.00 0.00 76 1014.7
20260901041216 25 99 0.0 1.6 0.00 0.00 0.00 68 1014.7
20260901040710 25 99 0.0 1.6 0.00 0.00 0.00 68 1014.6
20260901040424 25 99 0.0 1.6 0.00 0.00 0.00 68 1014.5
20260901035658 25 99 0.0 1.6 0.00 0.00 0.00 67 1014.5
20260901035151 25 99 0.0 0.0 0.00 0.00 0.00 68 1014.3
20260901034645 25 99 0.0 0.0 0.00 0.00 0.00 68 1014.4
20260901034140 25 99 0.0 0.0 0.00 0.00 0.00 67 1014.3
20260901033633 25 99 0.0 1.6 0.00 0.00 0.00 67 1014.3
20260901033127 25 99 0.0 0.0 0.00 0.00 0.00 67 1014.3
20260901032845 25 99 0.0 3.2 0.00 0.00 0.00 67 1014.2
20260901032115 25 99 1.6 4.8 0.00 0.00 0.00 67 1014.2
20260901031609 25 99 3.2 4.8 0.00 0.00 0.00 67 1014.2
20260901031108 25 101 3.2 3.2 0.00 0.00 0.00 67 1014.2
20260901030608 25 99 1.6 3.2 0.00 0.00 0.00 67 1014.3
20260901030108 25 99 1.6 3.2 0.00 0.00 0.00 67 1014.3
20260901025608 25 94 1.6 3.2 0.00 0.00 0.00 68 1014.4
20260901025106 25 94 1.6 3.2 0.00 0.00 0.00 67 1014.5
20260901024603 25 94 1.6 3.2 0.00 0.00 0.00 68 1014.5
20260901024101 25 94 0.0 1.6 0.00 0.00 0.00 69 1014.4
20260901023600 25 94 0.0 1.6 0.00 0.00 0.00 69 1014.4
20260901023101 25 94 0.0 1.6 0.00 0.00 0.00 68 1014.4
20260901022600 25 94 0.0 1.6 0.00 0.00 0.00 68 1014.5
20260901022057 25 94 1.6 3.2 0.00 0.00 0.00 68 1014.4
20260901021558 25 94 1.6 3.2 0.00 0.00 0.00 68 1014.4
20260901021058 25 101 0.0 3.2 0.00 0.00 0.00 70 1014.4
20260901020558 25 94 0.0 3.2 0.00 0.00 0.00 69 1014.5
20260901020058 25 94 1.6 3.2 0.00 0.00 0.00 70 1014.6
20260901015556 25 94 1.6 3.2 0.00 0.00 0.00 70 1014.6
20260901015056 25 94 1.6 1.6 0.00 0.00 0.00 70 1014.6
20260901014553 25 89 0.0 1.6 0.00 0.00 0.00 70 1014.7
20260901014055 25 89 1.6 4.8 0.00 0.00 0.00 70 1014.7
20260901013554 25 89 3.2 4.8 0.00 0.00 0.00 70 1014.7
20260901013052 25 91 1.6 4.8 0.00 0.00 0.00 70 1014.9
20260901012552 25 95 1.6 3.2 0.00 0.00 0.00 70 1014.9
20260901012052 25 72 1.6 4.8 0.00 0.00 0.00 71 1014.9
20260901011550 25 72 1.6 4.8 0.00 0.00 0.00 71 1014.9
20260901011048 25 90 1.6 4.8 0.00 0.00 0.00 71 1014.9
20260901010548 25 104 1.6 4.8 0.00 0.00 0.00 71 1014.9
20260901010048 25 90 1.6 3.2 0.00 0.00 0.00 71 1015.0
20260901005545 25 101 0.0 3.2 0.00 0.00 0.00 71 1015.0
20260901005045 25 101 0.0 1.6 0.00 0.00 0.00 70 1015.1
20260901004801 25 101 1.6 1.6 0.00 0.00 0.00 70 1015.1
20260901004531 25 101 1.6 1.6 0.00 0.00 0.00 70 1015.1
20260901003543 25 101 0.0 1.6 0.00 0.00 0.00 70 1015.1
20260901003044 25 101 0.0 0.0 0.00 0.00 0.00 70 1015.1
20260901003032 25 101 0.0 1.6 0.00 0.00 0.00 70 1015.1
20260901002040 25 101 0.0 1.6 0.00 0.00 0.00 70 1015.1
20260901001539 25 101 0.0 0.0 0.00 0.00 0.00 70 1014.9
20260901001040 25 101 0.0 1.6 0.00 0.00 0.00 69 1014.8
20260901001023 25 101 1.6 4.8 0.00 0.00 0.00 69 1014.8
20260901000040 25 101 1.6 4.8 0.00 0.00 0.00 69 1014.7
20260831235539 25 89 1.6 4.8 0.00 0.00 0.00 69 1014.6
20260831235039 25 89 1.6 4.8 0.00 0.00 0.00 69 1014.7
20260831234540 25 82 1.6 4.8 0.00 0.00 0.00 69 1014.7
20260831234039 25 96 1.6 4.8 0.00 0.00 0.00 69 1014.8
20260831233539 25 95 1.6 3.2 0.00 0.00 0.00 69 1014.8
20260831233039 25 95 0.0 1.6 0.00 0.00 0.00 69 1014.9
20260831233033 25 95 0.0 3.2 0.00 0.00 0.00 69 1015.0
20260831232040 26 95 1.6 3.2 0.00 0.00 0.00 69 1014.9
20260831231539 26 102 1.6 4.8 0.00 0.00 0.00 68 1014.9
20260831231040 26 96 1.6 4.8 0.00 0.00 0.00 68 1014.9
20260831230539 26 85 1.6 3.2 0.00 0.00 0.00 68 1015.0
20260831230041 26 89 0.0 3.2 0.00 0.00 0.00 68 1015.0
20260831225534 26 89 0.0 3.2 0.00 0.00 0.00 68 1015.1
20260831225028 26 89 1.6 3.2 0.00 0.00 0.00 68 1015.1
20260831224521 26 89 1.6 3.2 0.00 0.00 0.00 68 1015.1
20260831224014 26 89 0.0 3.2 0.00 0.00 0.00 68 1015.2
20260831223510 26 89 0.0 1.6 0.00 0.00 0.00 68 1015.2
20260831223008 26 89 1.6 3.2 0.00 0.00 0.00 67 1015.1
20260831222507 26 89 3.2 3.2 0.00 0.00 0.00 67 1015.0
20260831222006 26 90 1.6 3.2 0.00 0.00 0.00 67 1015.0
20260831221721 26 108 1.6 4.8 0.00 0.00 0.00 67 1015.0
20260831221003 26 148 1.6 4.8 0.00 0.00 0.00 67 1015.0
20260831220459 26 105 0.0 3.2 0.00 0.00 0.00 68 1015.0
20260831215957 26 150 0.0 1.6 0.00 0.00 0.00 68 1015.1
20260831215455 26 150 0.0 1.6 0.00 0.00 0.00 68 1015.2
20260831214953 26 125 0.0 1.6 0.00 0.00 0.00 67 1015.3
20260831214451 26 125 0.0 3.2 0.00 0.00 0.00 67 1015.3
20260831213951 26 137 0.0 3.2 0.00 0.00 0.00 67 1015.3
20260831213451 26 105 0.0 1.6 0.00 0.00 0.00 66 1015.3
20260831212950 26 105 0.0 1.6 0.00 0.00 0.00 66 1015.3
20260831212449 26 105 0.0 1.6 0.00 0.00 0.00 66 1015.4
20260831211946 26 105 0.0 0.0 0.00 0.00 0.00 65 1015.4
20260831211711 26 105 0.0 1.6 0.00 0.00 0.00 65 1015.3
20260831210941 26 105 0.0 1.6 0.00 0.00 0.00 65 1015.3
20260831210439 26 105 0.0 1.6 0.00 0.00 0.00 65 1015.3
20260831210157 26 105 0.0 3.2 0.00 0.00 0.00 65 1015.3
20260831205435 26 105 0.0 3.2 0.00 0.00 0.00 65 1015.3
20260831205152 26 105 1.6 3.2 0.00 0.00 0.00 65 1015.4
20260831204427 26 105 0.0 1.6 0.00 0.00 0.00 65 1015.4
20260831203921 26 105 0.0 1.6 0.00 0.00 0.00 66 1015.4
20260831203414 26 105 0.0 3.2 0.00 0.00 0.00 66 1015.5
20260831202909 26 105 0.0 3.2 0.00 0.00 0.00 66 1015.5
20260831202403 26 105 0.0 3.2 0.00 0.00 0.00 66 1015.5
20260831201857 26 105 0.0 3.2 0.00 0.00 0.00 67 1015.5
20260831201351 26 105 1.6 3.2 0.00 0.00 0.00 67 1015.4
20260831200844 26 124 0.0 1.6 0.00 0.00 0.00 67 1015.3
20260831200338 26 145 0.0 1.6 0.00 0.00 0.00 68 1015.2
20260831195834 26 210 0.0 3.2 0.00 0.00 0.00 68 1015.1
20260831195326 26 181 0.0 3.2 0.00 0.00 0.00 67 1015.1
20260831194821 26 152 0.0 3.2 0.00 0.00 0.00 67 1015.2
20260831194314 26 211 1.6 4.8 0.00 0.00 0.00 67 1015.2
20260831193809 26 137 1.6 6.4 0.00 0.00 0.00 67 1015.1
20260831193303 26 151 1.6 6.4 0.00 0.00 0.00 67 1015.0
20260831192757 26 91 1.6 6.4 0.00 0.00 0.00 68 1014.9
20260831192513 26 184 1.6 8.0 0.00 0.00 0.00 68 1015.0
20260831191746 26 211 3.2 8.0 0.00 0.00 0.00 68 1015.0
20260831191505 26 135 1.6 6.4 0.00 0.00 0.00 68 1015.0
20260831190732 26 122 3.2 9.7 0.00 0.00 0.00 68 1015.0
20260831190227 26 171 4.8 9.7 0.00 0.00 0.00 68 1014.8
20260831185720 27 81 4.8 9.7 0.00 0.00 0.00 67 1014.9
20260831185215 27 149 3.2 11.3 0.00 0.00 0.00 67 1014.9
20260831184708 27 84 3.2 11.3 0.00 0.00 0.00 66 1014.9
20260831184202 27 136 4.8 9.7 0.00 0.00 0.00 66 1014.8
20260831183656 27 219 4.8 11.3 0.00 0.00 0.00 66 1014.8
20260831183410 27 154 4.8 14.5 0.00 0.00 0.00 66 1014.8
20260831182644 27 75 3.2 14.5 0.00 0.00 0.00 65 1014.8
20260831182138 27 108 1.6 11.3 0.00 0.00 0.00 65 1014.7
20260831181633 27 146 3.2 9.7 0.00 0.00 0.00 65 1014.7
20260831181127 27 133 4.8 11.3 0.00 0.00 0.00 65 1014.7
20260831180620 27 143 6.4 16.1 0.00 0.00 0.00 65 1014.7
20260831180115 27 274 4.8 16.1 0.00 0.00 0.00 65 1014.6
20260831175609 27 172 3.2 12.9 0.00 0.00 0.00 65 1014.6
20260831175102 27 216 4.8 12.9 0.00 0.00 0.00 65 1014.5
20260831174823 27 204 4.8 14.5 0.00 0.00 0.00 65 1014.4
20260831174051 27 148 4.8 14.5 0.00 0.00 0.00 65 1014.3
20260831173545 27 216 4.8 11.3 0.00 0.00 0.00 64 1014.3
20260831173039 27 118 4.8 11.3 0.00 0.00 0.00 65 1014.3
20260831172533 27 129 4.8 14.5 0.00 0.00 0.00 65 1014.3
20260831172251 27 214 4.8 14.5 0.00 0.00 0.00 65 1014.2
20260831171520 27 89 3.2 11.3 0.00 0.00 0.00 65 1014.1
20260831171014 28 84 4.8 11.3 0.00 0.00 0.00 65 1014.0
20260831170508 28 101 4.8 11.3 0.00 0.00 0.00 65 1014.0
20260831170004 28 144 4.8 12.9 0.00 0.00 0.00 64 1014.0
20260831165456 28 171 6.4 17.7 0.00 0.00 0.00 63 1014.0
20260831165215 28 107 6.4 17.7 0.00 0.00 0.00 63 1014.0
20260831164705 28 205 6.4 14.5 0.00 0.00 0.00 63 1013.9
20260831163938 28 234 6.4 12.9 0.00 0.00 0.00 63 1013.9
20260831163433 28 196 6.4 14.5 0.00 0.00 0.00 63 1013.8
20260831162927 28 236 6.4 16.1 0.00 0.00 0.00 62 1013.8
20260831162425 29 182 8.0 16.1 0.00 0.00 0.00 60 1013.8
20260831161925 29 143 6.4 16.1 0.00 0.00 0.00 60 1013.7